timestamp,surface_pressure_avg,surface_temp_avg,battery_voltage,lat,long
2018-01-11 00:00:00+00:00,224.8148,1.9,12.89,47.84626,-54.09684
2018-01-11 00:10:00+00:00,225.5898,1.8,12.81,47.84626,-54.09684
2018-01-11 00:20:00+00:00,226.2081,1.8,12.89,47.84626,-54.09684
2018-01-11 00:30:00+00:00,221.9998,1.99,12.89,47.84626,-54.09684
2018-01-11 00:40:00+00:00,218.4381,2.3,12.89,47.84626,-54.09684
2018-01-11 00:50:00+00:00,218.3281,2.3,12.97,47.84626,-54.09684
2018-01-11 01:00:00+00:00,221.6481,2.2,12.81,47.84626,-54.09684
2018-01-11 01:10:00+00:00,223.9531,2.2,12.81,47.84626,-54.09684
2018-01-11 01:20:00+00:00,225.4131,2.0,12.89,47.84626,-54.09684
2018-01-11 01:30:00+00:00,228.0197,1.8,12.89,47.84626,-54.09684
2018-01-11 01:40:00+00:00,230.7798,1.72,12.89,47.84626,-54.09684
2018-01-11 01:50:00+00:00,234.6664,1.87,12.89,47.84626,-54.09684
2018-01-11 02:00:00+00:00,239.1631,1.91,12.81,47.84626,-54.09684
2018-01-11 02:10:00+00:00,242.3764,1.9,12.81,47.84626,-54.09684
2018-01-11 02:20:00+00:00,246.2914,1.9,12.89,47.84626,-54.09684
2018-01-11 02:30:00+00:00,249.6481,1.77,12.89,47.84626,-54.09684
2018-01-11 02:40:00+00:00,249.1164,1.7,12.89,47.84626,-54.09684
2018-01-11 02:50:00+00:00,248.8047,1.68,12.89,47.84626,-54.09684
2018-01-11 03:00:00+00:00,256.4764,1.58,12.81,47.84626,-54.09684
2018-01-11 03:10:00+00:00,261.8947,1.5,12.73,47.84626,-54.09684
2018-01-11 03:20:00+00:00,267.0363,1.4,12.89,47.84626,-54.09684
2018-01-11 03:30:00+00:00,273.8281,1.4,12.89,47.84626,-54.09684
2018-01-11 03:40:00+00:00,281.7747,1.35,12.89,47.84626,-54.09684
2018-01-11 03:50:00+00:00,284.3164,1.3,12.89,47.84626,-54.09684
2018-01-11 04:00:00+00:00,289.088,1.31,12.81,47.84626,-54.09684
2018-01-11 04:10:00+00:00,295.688,1.4,12.73,47.84626,-54.09684
2018-01-11 04:20:00+00:00,300.783,1.74,12.81,47.84626,-54.09684
2018-01-11 04:30:00+00:00,305.2113,2.25,12.81,47.84626,-54.09684
2018-01-11 04:40:00+00:00,307.8864,2.69,12.89,47.84626,-54.09684
2018-01-11 04:50:00+00:00,311.6963,2.78,12.89,47.84626,-54.09684
2018-01-11 05:00:00+00:00,317.1713,2.77,12.81,47.84626,-54.09684
2018-01-11 05:10:00+00:00,322.5262,2.74,12.73,47.84626,-54.09684
2018-01-11 05:20:00+00:00,330.5079,2.7,12.81,47.84626,-54.09684
2018-01-11 05:30:00+00:00,333.8146,2.69,12.81,47.84626,-54.09684
2018-01-11 05:40:00+00:00,338.9196,2.5,12.89,47.84626,-54.09684
2018-01-11 05:50:00+00:00,343.1346,2.4,12.89,47.84626,-54.09684
2018-01-11 06:00:00+00:00,343.1713,2.38,12.81,47.84626,-54.09684
2018-01-11 06:10:00+00:00,344.788,2.37,12.73,47.84626,-54.09684
2018-01-11 06:20:00+00:00,350.4612,2.37,12.81,47.84626,-54.09684
2018-01-11 06:30:00+00:00,355.088,2.41,12.81,47.84626,-54.09684
2018-01-11 06:40:00+00:00,354.158,2.5,12.81,47.84626,-54.09684
2018-01-11 06:50:00+00:00,356.7429,2.54,12.81,47.84626,-54.09684
2018-01-11 07:00:00+00:00,361.2413,2.56,12.81,47.84626,-54.09684
2018-01-11 07:10:00+00:00,363.6763,2.58,12.73,47.84626,-54.09684
2018-01-11 07:20:00+00:00,367.1063,2.6,12.81,47.84626,-54.09684
2018-01-11 07:30:00+00:00,367.8196,2.65,12.81,47.84626,-54.09684
2018-01-11 07:40:00+00:00,368.9863,2.69,12.81,47.84626,-54.09684
2018-01-11 07:50:00+00:00,367.9662,2.7,12.81,47.84626,-54.09684
2018-01-11 08:00:00+00:00,363.5312,2.7,12.73,47.84626,-54.09684
2018-01-11 08:10:00+00:00,367.3163,2.69,12.73,47.84626,-54.09684
2018-01-11 08:20:00+00:00,364.2546,2.6,12.81,47.84626,-54.09684
2018-01-11 08:30:00+00:00,358.8912,2.1,12.81,47.84626,-54.09684
2018-01-11 08:40:00+00:00,353.5246,2.21,12.81,47.84626,-54.09684
2018-01-11 08:50:00+00:00,350.813,2.5,12.81,47.84626,-54.09684
2018-01-11 09:00:00+00:00,344.6763,2.58,12.73,47.84626,-54.09684
2018-01-11 09:10:00+00:00,335.4296,2.53,12.73,47.84626,-54.09684
2018-01-11 09:20:00+00:00,334.9829,2.5,12.81,47.84626,-54.09684
2018-01-11 09:30:00+00:00,327.9413,2.5,12.81,47.84626,-54.09684
2018-01-11 09:40:00+00:00,316.388,2.5,12.81,47.84626,-54.09684
2018-01-11 09:50:00+00:00,313.4963,2.5,12.81,47.84626,-54.09684
2018-01-11 10:00:00+00:00,313.8996,2.5,12.73,47.84626,-54.09684
2018-01-11 10:10:00+00:00,301.8513,2.5,12.65,47.84626,-54.09684
2018-01-11 10:20:00+00:00,292.6147,2.5,12.81,47.84626,-54.09684
2018-01-11 10:30:00+00:00,294.4163,2.5,12.81,47.84626,-54.09684
2018-01-11 10:40:00+00:00,288.0164,2.5,12.81,47.84626,-54.09684
2018-01-11 10:50:00+00:00,272.7847,2.47,12.81,47.84626,-54.09684
2018-01-11 11:00:00+00:00,267.5648,2.44,12.73,47.84626,-54.09684
2018-01-11 11:10:00+00:00,271.648,2.42,12.65,47.84626,-54.09684
2018-01-11 11:20:00+00:00,265.2098,2.45,12.73,47.84626,-54.09684
2018-01-11 11:30:00+00:00,260.6948,2.35,12.81,47.84626,-54.09684
2018-01-11 11:40:00+00:00,260.8997,2.3,12.97,47.84626,-54.09684
2018-01-11 11:50:00+00:00,257.9731,2.3,13.29,47.84626,-54.09684
2018-01-11 12:00:00+00:00,248.7631,2.1,13.68,47.84626,-54.09684
2018-01-11 12:10:00+00:00,244.0998,1.99,14.0,47.84626,-54.09684
2018-01-11 12:20:00+00:00,246.1097,2.0,13.53,47.84626,-54.09684
2018-01-11 12:30:00+00:00,241.7564,2.0,13.76,47.84626,-54.09684
2018-01-11 12:40:00+00:00,237.6181,1.9,13.53,47.84626,-54.09684
2018-01-11 12:50:00+00:00,243.3481,1.97,13.68,47.84626,-54.09684
2018-01-11 13:00:00+00:00,241.5614,2.0,13.44,47.84626,-54.09684
2018-01-11 13:10:00+00:00,234.1247,1.97,13.44,47.84626,-54.09684
2018-01-11 13:20:00+00:00,236.1031,1.96,13.84,47.84626,-54.09684
2018-01-11 13:30:00+00:00,237.6681,1.99,13.53,47.84626,-54.09684
2018-01-11 13:40:00+00:00,233.7281,2.0,13.84,47.84626,-54.09684
2018-01-11 13:50:00+00:00,233.4798,2.0,13.84,47.84626,-54.09684
2018-01-11 14:00:00+00:00,235.4114,2.0,13.53,47.84626,-54.09684
2018-01-11 14:10:00+00:00,232.2181,2.0,13.84,47.84626,-54.09684
2018-01-11 14:20:00+00:00,233.4831,2.0,13.84,47.84626,-54.09684
2018-01-11 14:30:00+00:00,240.5965,2.0,14.32,47.84626,-54.09684
2018-01-11 14:40:00+00:00,240.9448,2.0,13.53,47.84626,-54.09684
2018-01-11 14:50:00+00:00,237.1864,2.0,13.53,47.84626,-54.09684
2018-01-11 15:00:00+00:00,237.5797,2.0,13.6,47.84626,-54.09684
2018-01-11 15:10:00+00:00,239.7031,2.0,13.44,47.84626,-54.09684
2018-01-11 15:20:00+00:00,240.6381,2.0,14.0,47.84626,-54.09684
2018-01-11 15:30:00+00:00,241.2698,2.16,13.53,47.84626,-54.09684
2018-01-11 15:40:00+00:00,240.1798,2.86,13.84,47.84626,-54.09684
2018-01-11 15:50:00+00:00,243.9931,2.8,13.92,47.84626,-54.09684
2018-01-11 16:00:00+00:00,247.9565,2.73,13.84,47.84626,-54.09684
2018-01-11 16:10:00+00:00,244.6681,2.5,13.68,47.84626,-54.09684
2018-01-11 16:20:00+00:00,242.213,2.52,13.68,47.84626,-54.09684
2018-01-11 16:30:00+00:00,247.3148,2.57,13.53,47.84626,-54.09684
2018-01-11 16:40:00+00:00,249.0564,2.6,13.44,47.84626,-54.09684
2018-01-11 16:50:00+00:00,250.8198,2.6,13.44,47.84626,-54.09684
2018-01-11 17:00:00+00:00,254.2164,2.6,13.37,47.84626,-54.09684
2018-01-11 17:10:00+00:00,259.7914,2.6,13.21,47.84626,-54.09684
2018-01-11 17:20:00+00:00,263.5031,2.5,13.29,47.84626,-54.09684
2018-01-11 17:30:00+00:00,267.6614,2.5,13.37,47.84626,-54.09684
2018-01-11 17:40:00+00:00,269.2164,2.4,13.37,47.84626,-54.09684
2018-01-11 17:50:00+00:00,273.3597,2.47,13.37,47.84626,-54.09684
2018-01-11 18:00:00+00:00,276.858,2.58,13.21,47.84626,-54.09684
2018-01-11 18:10:00+00:00,279.1164,2.75,13.05,47.84626,-54.09684
2018-01-11 18:20:00+00:00,279.6613,2.76,13.21,47.84626,-54.09684
2018-01-11 18:30:00+00:00,285.868,2.99,13.13,47.84626,-54.09684
2018-01-11 18:40:00+00:00,291.9747,3.0,13.13,47.84626,-54.09684
2018-01-11 18:50:00+00:00,294.5681,3.0,13.05,47.84626,-54.09684
2018-01-11 19:00:00+00:00,294.7547,2.9,12.97,47.84626,-54.09684
2018-01-11 19:10:00+00:00,297.258,2.8,12.97,47.84626,-54.09684
2018-01-11 19:20:00+00:00,298.6114,2.9,13.05,47.84626,-54.09684
2018-01-11 19:30:00+00:00,298.3163,2.97,12.97,47.84626,-54.09684
2018-01-11 19:40:00+00:00,298.7881,2.8,13.05,47.84626,-54.09684
2018-01-11 19:50:00+00:00,299.3763,2.7,13.05,47.84626,-54.09684
2018-01-11 20:00:00+00:00,300.2647,2.7,12.97,47.84626,-54.09684
2018-01-11 20:10:00+00:00,295.5681,2.77,12.89,47.84626,-54.09684
2018-01-11 20:20:00+00:00,293.203,2.8,12.97,47.84626,-54.09684
2018-01-11 20:30:00+00:00,294.9363,2.83,12.97,47.84626,-54.09684
2018-01-11 20:40:00+00:00,298.283,2.89,12.97,47.84626,-54.09684
2018-01-11 20:50:00+00:00,299.9647,2.9,12.97,47.84626,-54.09684
2018-01-11 21:00:00+00:00,300.1297,2.9,12.89,47.84626,-54.09684
2018-01-11 21:10:00+00:00,300.4847,2.99,12.81,47.84626,-54.09684
2018-01-11 21:20:00+00:00,300.413,3.0,12.97,47.84626,-54.09684
2018-01-11 21:30:00+00:00,297.1115,3.0,12.97,47.84626,-54.09684
2018-01-11 21:40:00+00:00,291.8597,3.0,12.97,47.84626,-54.09684
2018-01-11 21:50:00+00:00,292.183,3.0,12.97,47.84626,-54.09684
2018-01-11 22:00:00+00:00,292.8731,3.0,12.89,47.84626,-54.09684
2018-01-11 22:10:00+00:00,285.2081,3.0,12.81,47.84626,-54.09684
2018-01-11 22:20:00+00:00,278.8747,2.88,12.89,47.84626,-54.09684
2018-01-11 22:30:00+00:00,278.7264,2.89,12.89,47.84626,-54.09684
2018-01-11 22:40:00+00:00,273.7347,2.9,12.97,47.84626,-54.09684
2018-01-11 22:50:00+00:00,264.2097,2.94,12.97,47.84626,-54.09684
2018-01-11 23:00:00+00:00,259.7397,2.99,12.89,47.84626,-54.09684
2018-01-11 23:10:00+00:00,258.3314,3.0,12.81,47.84626,-54.09684
2018-01-11 23:20:00+00:00,249.9447,3.0,12.89,47.84626,-54.09684
2018-01-11 23:30:00+00:00,239.4098,2.99,12.89,47.84626,-54.09684
2018-01-11 23:40:00+00:00,234.0831,2.9,12.89,47.84626,-54.09684
2018-01-11 23:50:00+00:00,232.4048,2.9,12.89,47.84626,-54.09684
